Regional Weather Roundup
Issued by NWS

Home | Current Version | Previous Version | Text Only | Print | Product List | Glossary Off
Versions: 1 2 3 4 5 6 7 8 9 10 11 12 13 14 15 16 17 18 19 20 21 22 23 24 25 26 27 28 29 30 31 32 33 34 35 36 37 38 39 40 41 42 43 44 45 46 47 48 49 50

000
ASUS43 KFSD 200502
RWRSD

WEATHER ROUNDUP FOR SOUTH DAKOTA
NATIONAL WEATHER SERVICE SIOUX FALLS SD
1200 AM CDT SUN APR 20 2014

NOTE: "FAIR" INDICATES FEW OR NO CLOUDS BELOW 12,000 FEET WITH NO
SIGNIFICANT WEATHER AND/OR OBSTRUCTIONS TO VISIBILITY.


SDZ001>005-009-010-012>017-200600-
NORTHWEST AND NORTH CENTRAL SOUTH DAKOTA

CITY           SKY/WX    TMP DP  RH WIND       PRES   REMARKS
FAITH            N/A     44  28  53 S12       29.98F
MOBRIDGE       CLEAR     45  27  49 E5        29.97S
$$

SDZ012>016-024>037-041>051-057-063-072>074-200600-
SOUTHWEST AND SOUTH CENTRAL SOUTH DAKOTA

CITY           SKY/WX    TMP DP  RH WIND       PRES   REMARKS
RAPID CTY ARPT PTCLDY    45  28  51 CALM      29.99F
PIERRE         PTCLDY    42  28  57 CALM      29.99F
CUSTER         PTCLDY    37  28  70 NW5       30.04F
ELLSWORTH AFB  PTCLDY    49  28  44 S7        29.99F
PHILIP         CLEAR     45  27  49 E6        30.00F
PINE RIDGE     CLEAR     49  29  46 E8        30.01F
WINNER         FAIR      50  17  27 S7        30.02S
$$

SDZ004>011-016>023-039-040-200600-
NORTHEAST SOUTH DAKOTA

CITY           SKY/WX    TMP DP  RH WIND       PRES   REMARKS
ABERDEEN       PTCLDY    38  26  62 SW6       30.00R
WATERTOWN      PTCLDY    44  30  57 S5        30.01F
SISSETON         N/A     46  31  55 CALM      29.98S
$$

SDZ017-020-022-023-036>040-048>070-200600-
SOUTHEAST SOUTH DAKOTA

CITY           SKY/WX    TMP DP  RH WIND       PRES   REMARKS
SIOUX FALLS    CLOUDY    55  41  59 NE5       30.01F
HURON          PTCLDY    47  31  53 CALM      30.00F
CHAMBERLAIN      N/A     52  24  33 SE3       30.02S
MITCHELL         N/A     49  28  44 CALM      30.01F
YANKTON        CLOUDY    57  34  41 N3        30.01F
$$

ABBREVIATIONS USED IN REMARKS
   TC - TEMPERATURE IN CELSIUS
  WCI - WIND CHILL INDEX
   HX - HEAT INDEX
  VSB - VISIBILITY




USA.gov is the U.S. government's official web portal to all federal, state and local government web resources and services.